Location: Austin
(30.3000°N, 97.7500°W)
Time: 01:33:35
(UTC-05:00)

Cosmos 2180 Rocket - Pass Details

Date: 15 April 2025
Orbit: 954 x 1003 km, 82.9° (Epoch: 28 April)

Event Time Altitude Azimuth Distance (km) Brightness Sun altitude
Exits shadow 21:51:06 49° 130° (SE) 1,220 4.6 -23.5°
Maximum altitude 21:52:13 56° 92° (E) 1,133 4.5 -23.7°
Drops below altitude 10° 21:58:16 10° 15° (NNE) 2,723 7.0 -24.9°
Sets 22:00:51 0° 12° (NNE) 3,681 7.8 -25.3°
